Time,TemperatureF,DewpointF,PressureIn,WindDirection,WindDirectionDegrees,WindSpeedMPH,WindSpeedGustMPH,Humidity,HourlyPrecipIn,Conditions,Clouds,dailyrainin,SolarRadiationWatts/m^2,SoftwareType,DateUTC
2013-02-17 00:10:00,48.6,29.0,30.11,North,360,0.0,12.0,47,0.00,,,0.00,0,weatherlink.com 1.10,2013-02-17 05:10:00,
2013-02-17 00:25:00,47.9,28.0,30.12,NNW,346,2.0,8.0,46,0.00,,,0.00,0,weatherlink.com 1.10,2013-02-17 05:25:00,
2013-02-17 00:40:00,47.4,26.0,30.12,NNE,15,7.0,14.0,44,0.00,,,0.00,0,weatherlink.com 1.10,2013-02-17 05:40:00,
2013-02-17 00:55:00,47.1,25.0,30.13,NNW,344,3.0,17.0,43,0.00,,,0.00,0,weatherlink.com 1.10,2013-02-17 05:55:00,
2013-02-17 01:10:00,46.7,25.0,30.13,NNW,337,2.0,9.0,43,0.00,,,0.00,0,weatherlink.com 1.10,2013-02-17 06:10:00,
2013-02-17 01:25:00,46.0,25.0,30.14,NNW,346,0.0,14.0,44,0.00,,,0.00,0,weatherlink.com 1.10,2013-02-17 06:25:00,
2013-02-17 01:40:00,45.4,25.0,30.14,NNE,12,2.0,9.0,45,0.00,,,0.00,0,weatherlink.com 1.10,2013-02-17 06:40:00,
2013-02-17 01:55:00,45.0,23.0,30.14,NNE,21,0.0,10.0,42,0.00,,,0.00,0,weatherlink.com 1.10,2013-02-17 06:55:00,
2013-02-17 02:10:00,44.5,20.0,30.15,NW,304,9.0,10.0,38,0.00,,,0.00,0,weatherlink.com 1.10,2013-02-17 07:10:00,
2013-02-17 02:25:00,44.1,20.0,30.15,NW,321,1.0,15.0,38,0.00,,,0.00,0,weatherlink.com 1.10,2013-02-17 07:25:00,
2013-02-17 02:40:00,43.5,19.0,30.15,NNE,13,1.0,12.0,38,0.00,,,0.00,0,weatherlink.com 1.10,2013-02-17 07:40:00,
2013-02-17 02:55:00,43.2,18.0,30.15,NNW,346,3.0,15.0,37,0.00,,,0.00,0,weatherlink.com 1.10,2013-02-17 07:55:00,
2013-02-17 03:11:00,42.8,19.0,30.15,North,360,6.0,16.0,38,0.00,,,0.00,0,weatherlink.com 1.10,2013-02-17 08:11:00,
2013-02-17 03:25:00,42.3,19.0,30.15,NNW,346,0.0,8.0,40,0.00,,,0.00,0,weatherlink.com 1.10,2013-02-17 08:25:00,
2013-02-17 03:40:00,41.9,19.0,30.16,NW,304,4.0,11.0,40,0.00,,,0.00,0,weatherlink.com 1.10,2013-02-17 08:40:00,
2013-02-17 03:55:00,41.4,19.0,30.16,NNW,336,1.0,7.0,41,0.00,,,0.00,0,weatherlink.com 1.10,2013-02-17 08:55:00,
2013-02-17 04:11:00,41.0,19.0,30.17,North,355,2.0,8.0,42,0.00,,,0.00,0,weatherlink.com 1.10,2013-02-17 09:11:00,
2013-02-17 04:25:00,40.6,18.0,30.17,NW,309,5.0,9.0,41,0.00,,,0.00,0,weatherlink.com 1.10,2013-02-17 09:25:00,
2013-02-17 04:40:00,40.2,19.0,30.17,WNW,295,1.0,6.0,43,0.00,,,0.00,0,weatherlink.com 1.10,2013-02-17 09:40:00,
2013-02-17 04:56:00,39.7,20.0,30.18,NNE,15,0.0,4.0,45,0.00,,,0.00,0,weatherlink.com 1.10,2013-02-17 09:56:00,
2013-02-17 05:11:00,39.2,20.0,30.19,NNW,331,0.0,3.0,46,0.00,,,0.00,0,weatherlink.com 1.10,2013-02-17 10:11:00,
2013-02-17 05:26:00,38.7,20.0,30.20,NW,325,0.0,1.0,47,0.00,,,0.00,0,weatherlink.com 1.10,2013-02-17 10:26:00,
2013-02-17 05:41:00,38.3,20.0,30.20,NNE,21,0.0,3.0,49,0.00,,,0.00,0,weatherlink.com 1.10,2013-02-17 10:41:00,
2013-02-17 05:56:00,38.3,20.0,30.21,North,349,1.0,4.0,48,0.00,,,0.00,0,weatherlink.com 1.10,2013-02-17 10:56:00,
2013-02-17 06:11:00,38.1,20.0,30.22,NW,307,0.0,5.0,49,0.00,,,0.00,0,weatherlink.com 1.10,2013-02-17 11:11:00,
2013-02-17 06:26:00,38.0,20.0,30.23,NNW,346,1.0,5.0,49,0.00,,,0.00,0,weatherlink.com 1.10,2013-02-17 11:26:00,
2013-02-17 06:41:00,37.8,20.0,30.24,North,360,1.0,5.0,48,0.00,,,0.00,0,weatherlink.com 1.10,2013-02-17 11:41:00,
2013-02-17 06:56:00,37.4,20.0,30.24,North,350,1.0,4.0,49,0.00,,,0.00,0,weatherlink.com 1.10,2013-02-17 11:56:00,
2013-02-17 07:11:00,37.1,20.0,30.24,NNE,17,0.0,3.0,51,0.00,,,0.00,11,weatherlink.com 1.10,2013-02-17 12:11:00,
2013-02-17 07:26:00,37.2,20.0,30.25,NNW,344,0.0,3.0,51,0.00,,,0.00,19,weatherlink.com 1.10,2013-02-17 12:26:00,
2013-02-17 07:41:00,37.5,20.0,30.25,North,11,0.0,7.0,50,0.00,,,0.00,26,weatherlink.com 1.10,2013-02-17 12:41:00,
2013-02-17 07:56:00,38.2,20.0,30.25,NNE,31,3.0,8.0,49,0.00,,,0.00,47,weatherlink.com 1.10,2013-02-17 12:56:00,
2013-02-17 08:11:00,39.0,21.0,30.26,North,10,2.0,7.0,48,0.00,,,0.00,88,weatherlink.com 1.10,2013-02-17 13:11:00,
2013-02-17 08:26:00,39.8,20.0,30.27,NNE,24,0.0,9.0,46,0.00,,,0.00,58,weatherlink.com 1.10,2013-02-17 13:26:00,
2013-02-17 08:41:00,41.1,21.0,30.28,WNW,285,3.0,8.0,45,0.00,,,0.00,318,weatherlink.com 1.10,2013-02-17 13:41:00,
2013-02-17 08:56:00,41.6,21.0,30.29,WSW,256,2.0,10.0,44,0.00,,,0.00,371,weatherlink.com 1.10,2013-02-17 13:56:00,
2013-02-17 09:11:00,42.3,20.0,30.29,NNE,24,6.0,11.0,41,0.00,,,0.00,427,weatherlink.com 1.10,2013-02-17 14:11:00,
2013-02-17 09:27:00,42.6,20.0,30.29,NW,309,2.0,11.0,41,0.00,,,0.00,480,weatherlink.com 1.10,2013-02-17 14:27:00,
2013-02-17 09:41:00,43.0,19.0,30.29,NE,51,9.0,13.0,39,0.00,,,0.00,529,weatherlink.com 1.10,2013-02-17 14:41:00,
2013-02-17 09:57:00,45.0,21.0,30.29,North,355,6.0,8.0,39,0.00,,,0.00,577,weatherlink.com 1.10,2013-02-17 14:57:00,
2013-02-17 10:12:00,45.0,19.0,30.29,NE,36,8.0,12.0,35,0.00,,,0.00,619,weatherlink.com 1.10,2013-02-17 15:12:00,
2013-02-17 10:27:00,45.5,18.0,30.29,North,10,1.0,14.0,33,0.00,,,0.00,663,weatherlink.com 1.10,2013-02-17 15:27:00,
2013-02-17 10:42:00,46.0,16.0,30.29,NW,304,8.0,14.0,30,0.00,,,0.00,701,weatherlink.com 1.10,2013-02-17 15:42:00,
2013-02-17 10:57:00,46.9,18.0,30.30,NW,326,3.0,10.0,32,0.00,,,0.00,735,weatherlink.com 1.10,2013-02-17 15:57:00,
2013-02-17 11:12:00,47.8,17.0,30.30,NE,41,2.0,10.0,29,0.00,,,0.00,766,weatherlink.com 1.10,2013-02-17 16:12:00,
2013-02-17 11:27:00,47.2,17.0,30.30,NW,310,3.0,13.0,30,0.00,,,0.00,789,weatherlink.com 1.10,2013-02-17 16:27:00,
2013-02-17 11:42:00,49.0,18.0,30.30,WSW,253,2.0,9.0,29,0.00,,,0.00,810,weatherlink.com 1.10,2013-02-17 16:42:00,
2013-02-17 11:57:00,49.3,19.0,30.29,NNW,338,1.0,9.0,30,0.00,,,0.00,824,weatherlink.com 1.10,2013-02-17 16:57:00,
2013-02-17 12:12:00,49.7,18.0,30.29,NW,316,6.0,12.0,29,0.00,,,0.00,840,weatherlink.com 1.10,2013-02-17 17:12:00,
2013-02-17 12:27:00,49.2,15.0,30.29,NW,326,4.0,14.0,25,0.00,,,0.00,847,weatherlink.com 1.10,2013-02-17 17:27:00,
2013-02-17 12:42:00,48.7,15.0,30.28,ENE,67,1.0,13.0,26,0.00,,,0.00,849,weatherlink.com 1.10,2013-02-17 17:42:00,
2013-02-17 12:57:00,50.9,14.0,30.28,North,355,3.0,10.0,23,0.00,,,0.00,853,weatherlink.com 1.10,2013-02-17 17:57:00,
2013-02-17 13:12:00,52.3,17.0,30.27,NNE,27,5.0,9.0,25,0.00,,,0.00,844,weatherlink.com 1.10,2013-02-17 18:12:00,
2013-02-17 13:27:00,52.3,16.0,30.27,North,355,1.0,9.0,24,0.00,,,0.00,833,weatherlink.com 1.10,2013-02-17 18:27:00,
2013-02-17 13:42:00,50.9,12.0,30.26,East,99,6.0,14.0,21,0.00,,,0.00,819,weatherlink.com 1.10,2013-02-17 18:42:00,
2013-02-17 13:57:00,51.5,14.0,30.26,NNW,342,3.0,12.0,22,0.00,,,0.00,796,weatherlink.com 1.10,2013-02-17 18:57:00,
2013-02-17 14:12:00,51.6,13.0,30.25,NW,313,8.0,9.0,21,0.00,,,0.00,773,weatherlink.com 1.10,2013-02-17 19:12:00,
2013-02-17 14:27:00,51.9,12.0,30.25,WNW,301,4.0,11.0,20,0.00,,,0.00,744,weatherlink.com 1.10,2013-02-17 19:27:00,
2013-02-17 14:42:00,52.5,11.0,30.25,NW,310,6.0,14.0,19,0.00,,,0.00,714,weatherlink.com 1.10,2013-02-17 19:42:00,
2013-02-17 14:57:00,52.1,11.0,30.25,North,360,1.0,10.0,19,0.00,,,0.00,677,weatherlink.com 1.10,2013-02-17 19:57:00,
2013-02-17 15:12:00,52.5,11.0,30.25,NE,36,1.0,9.0,19,0.00,,,0.00,638,weatherlink.com 1.10,2013-02-17 20:12:00,
2013-02-17 15:27:00,53.2,12.0,30.24,North,355,5.0,9.0,19,0.00,,,0.00,598,weatherlink.com 1.10,2013-02-17 20:27:00,
2013-02-17 15:42:00,52.7,11.0,30.24,NNE,29,1.0,10.0,19,0.00,,,0.00,550,weatherlink.com 1.10,2013-02-17 20:42:00,
2013-02-17 15:57:00,52.8,11.0,30.25,NE,53,3.0,8.0,19,0.00,,,0.00,499,weatherlink.com 1.10,2013-02-17 20:57:00,
2013-02-17 16:12:00,52.4,11.0,30.25,NNE,13,0.0,8.0,19,0.00,,,0.00,445,weatherlink.com 1.10,2013-02-17 21:12:00,
2013-02-17 16:28:00,53.1,13.0,30.25,NNE,15,0.0,8.0,20,0.00,,,0.00,388,weatherlink.com 1.10,2013-02-17 21:28:00,
2013-02-17 16:42:00,53.5,13.0,30.25,NNW,344,3.0,4.0,20,0.00,,,0.00,332,weatherlink.com 1.10,2013-02-17 21:42:00,
2013-02-17 16:58:00,52.9,14.0,30.25,ENE,57,4.0,7.0,21,0.00,,,0.00,272,weatherlink.com 1.10,2013-02-17 21:58:00,
2013-02-17 17:27:00,52.2,13.0,30.25,NE,42,1.0,5.0,21,0.00,,,0.00,146,weatherlink.com 1.10,2013-02-17 22:27:00,
2013-02-17 17:42:00,52.3,14.0,30.25,NNW,348,0.0,4.0,22,0.00,,,0.00,86,weatherlink.com 1.10,2013-02-17 22:42:00,
2013-02-17 17:57:00,52.0,15.0,30.25,NE,49,0.0,0.0,23,0.00,,,0.00,18,weatherlink.com 1.10,2013-02-17 22:57:00,
2013-02-17 18:12:00,50.9,17.0,30.26,NE,49,0.0,2.0,26,0.00,,,0.00,7,weatherlink.com 1.10,2013-02-17 23:12:00,
2013-02-17 18:27:00,49.7,17.0,30.26,NE,45,0.0,1.0,27,0.00,,,0.00,0,weatherlink.com 1.10,2013-02-17 23:27:00,
2013-02-17 18:43:00,48.2,17.0,30.27,NE,45,0.0,0.0,29,0.00,,,0.00,0,weatherlink.com 1.10,2013-02-17 23:43:00,
2013-02-17 18:57:00,46.8,18.0,30.27,NE,45,0.0,0.0,32,0.00,,,0.00,0,weatherlink.com 1.10,2013-02-17 23:57:00,
2013-02-17 19:12:00,45.5,18.0,30.27,NE,45,0.0,0.0,34,0.00,,,0.00,0,weatherlink.com 1.10,2013-02-18 00:12:00,
2013-02-17 19:27:00,44.7,18.0,30.27,NE,45,0.0,0.0,34,0.00,,,0.00,0,weatherlink.com 1.10,2013-02-18 00:27:00,
2013-02-17 19:42:00,43.9,21.0,30.28,NE,45,0.0,0.0,40,0.00,,,0.00,0,weatherlink.com 1.10,2013-02-18 00:42:00,
2013-02-17 19:57:00,43.2,21.0,30.29,NE,44,0.0,0.0,41,0.00,,,0.00,0,weatherlink.com 1.10,2013-02-18 00:57:00,
2013-02-17 20:13:00,42.7,22.0,30.29,NE,45,0.0,0.0,44,0.00,,,0.00,0,weatherlink.com 1.10,2013-02-18 01:13:00,
2013-02-17 20:28:00,41.9,20.0,30.30,NE,45,0.0,0.0,42,0.00,,,0.00,0,weatherlink.com 1.10,2013-02-18 01:28:00,
2013-02-17 20:43:00,41.4,21.0,30.30,NE,44,0.0,0.0,45,0.00,,,0.00,0,weatherlink.com 1.10,2013-02-18 01:43:00,
2013-02-17 20:58:00,40.8,21.0,30.30,NE,45,0.0,0.0,45,0.00,,,0.00,0,weatherlink.com 1.10,2013-02-18 01:58:00,
2013-02-17 21:13:00,40.3,21.0,30.30,NE,45,0.0,0.0,47,0.00,,,0.00,0,weatherlink.com 1.10,2013-02-18 02:13:00,
2013-02-17 21:28:00,40.6,21.0,30.31,ENE,69,0.0,1.0,46,0.00,,,0.00,0,weatherlink.com 1.10,2013-02-18 02:28:00,
2013-02-17 21:43:00,40.3,22.0,30.32,ENE,69,0.0,0.0,49,0.00,,,0.00,0,weatherlink.com 1.10,2013-02-18 02:43:00,
2013-02-17 21:58:00,39.7,23.0,30.32,ENE,69,0.0,0.0,52,0.00,,,0.00,0,weatherlink.com 1.10,2013-02-18 02:58:00,
2013-02-17 22:13:00,39.6,24.0,30.32,ENE,69,0.0,0.0,54,0.00,,,0.00,0,weatherlink.com 1.10,2013-02-18 03:13:00,
2013-02-17 22:28:00,39.5,24.0,30.33,ENE,69,0.0,0.0,55,0.00,,,0.00,0,weatherlink.com 1.10,2013-02-18 03:28:00,
2013-02-17 22:43:00,39.3,25.0,30.33,ENE,69,0.0,0.0,56,0.00,,,0.00,0,weatherlink.com 1.10,2013-02-18 03:43:00,
2013-02-17 22:58:00,38.8,25.0,30.33,ENE,69,0.0,0.0,57,0.00,,,0.00,0,weatherlink.com 1.10,2013-02-18 03:58:00,
2013-02-17 23:13:00,38.2,24.0,30.33,ENE,69,0.0,0.0,58,0.00,,,0.00,0,weatherlink.com 1.10,2013-02-18 04:13:00,
2013-02-17 23:28:00,37.8,25.0,30.33,ENE,69,0.0,0.0,61,0.00,,,0.00,0,weatherlink.com 1.10,2013-02-18 04:28:00,
2013-02-17 23:43:00,37.6,25.0,30.33,ENE,69,0.0,0.0,61,0.00,,,0.00,0,weatherlink.com 1.10,2013-02-18 04:43:00,
2013-02-17 23:58:00,37.3,26.0,30.33,ENE,69,0.0,0.0,63,0.00,,,0.00,0,weatherlink.com 1.10,2013-02-18 04:58:00,